Regional Weather Roundup
Issued by NWS

Home | Current Version | Previous Version | Text Only | Print | Product List | Glossary Off
Versions: 1 2 3 4 5 6 7 8 9 10 11 12 13 14 15 16 17 18 19 20 21 22 23 24 25 26 27 28 29 30 31 32 33 34 35 36 37 38 39 40 41 42 43 44 45 46 47 48 49 50

000
ASUS43 KLOT 240000
RWRIL

ILLINOIS REGIONAL WEATHER ROUNDUP
NATIONAL WEATHER SERVICE CHICAGO/ROMEOVILLE IL
600 PM CST SUN NOV 23 2014

NOTE: "FAIR" INDICATES FEW OR NO CLOUDS BELOW 12,000 FEET WITH NO
SIGNIFICANT WEATHER AND/OR OBSTRUCTIONS TO VISIBILITY.

* THESE STATIONS ARE NOT UNDER NWS QUALITY CONTROL. THEY ALSO MAY NOT
  REPORT WEATHER SUCH AS PRECIPITATION OR FOG.

ILZ001-002-007-009-015-016-024-240100-
NORTHWEST ILLINOIS

CITY           SKY/WX    TMP DP  RH WIND       PRES   REMARKS
MOLINE         CLOUDY    51  49  92 CALM      29.29F FOG
6HR MIN TEMP:  51; 6HR MAX TEMP:  53; 6HR PCP:  0.24;

STERLING*      CLOUDY    48  46  93 SE3       29.32F
$$

ILZ003-004-008-010-011-017-018-240100-
NORTH CENTRAL ILLINOIS

CITY           SKY/WX    TMP DP  RH WIND       PRES   REMARKS
ROCKFORD       LGT RAIN  49  47  93 SE9       29.36F FOG
6HR MIN TEMP:  49; 6HR MAX TEMP:  50; 6HR PCP:  0.13;

$$

ILZ005-006-012>014-019>023-240100-
NORTHEAST ILLINOIS

CITY           SKY/WX    TMP DP  RH WIND       PRES   REMARKS
CHICAGO-OHARE  LGT RAIN  50  49  96 SE8       29.37F FOG
6HR MIN TEMP:  50; 6HR MAX TEMP:  52; 6HR PCP:  0.21;

CHICAGO-MIDWAY LGT RAIN  52  51  97 SE7       29.37F
6HR MIN TEMP:  52; 6HR MAX TEMP:  54; 6HR PCP:  0.20;

AURORA         LGT RAIN  51  48  89 SE6       29.35F FOG
6HR MIN TEMP:  50; 6HR MAX TEMP:  52; 6HR PCP:  0.23;

WAUKEGAN       LGT RAIN  46  45  96 SE8       29.38F FOG
6HR MIN TEMP:  45; 6HR MAX TEMP:  52; 6HR PCP:  0.20;

DUPAGE AIRPORT RAIN      50  49  96 E6        29.35F FOG
6HR MIN TEMP:  50; 6HR MAX TEMP:  51; 6HR PCP:  0.20;

WHEELING       LGT RAIN  49  48  97 E6        29.39F FOG
6HR MIN TEMP:  49; 6HR MAX TEMP:  52; 6HR PCP:  0.21;

NORTHERLY ISL    N/A     44  42  93 SE2         N/A
$$

LMZ740>746-240100-
SOUTHERN LAKE MICHIGAN

STATION/POSITION SKY/WX   TEMP    WIND        PRES    VSBY  WAVE
                          AIR SEA DIR/SP/G                  HT/PER
                          (F)     (DEG/KT/KT) (MB)    (MI)  (FT/S)
SOUTHERN BUOY              46 42  130/ 14/ 14  998.1F         2/ 4
WAUKEGAN HARBOR            43     190/  4/  6   N/A
HARRISON CRIB              46     120/ 17/ 18   N/A
BURNHAM HARBOR             44     160/  2/  4   N/A
CALUMET HARBOR             51     140/  9/ 15  994.4F
MICHIGAN CITY              51     110/ 10/ 14   N/A
$$

ILZ025>027-034>036-040-047-049-050-058-095>099-240100-
WEST-CENTRAL ILLINOIS

CITY           SKY/WX    TMP DP  RH WIND       PRES   REMARKS
QUINCY         LGT RAIN  52  51  97 S3        29.29F FOG
$$

ILZ028>032-037-038-041>044-048-051>054-059>061-240100-
CENTRAL ILLINOIS

CITY           SKY/WX    TMP DP  RH WIND       PRES   REMARKS
DECATUR        LGT RAIN  51  50  97 SE10      29.31F
PEORIA         LGT RAIN  51  48  89 SE5       29.31F FOG
6HR MIN TEMP:  51; 6HR MAX TEMP:  55; 6HR PCP:  0.28;

SPRINGFIELD    LGT RAIN  52  51  97 S7        29.31F
6HR MIN TEMP:  52; 6HR MAX TEMP:  54; 6HR PCP:  0.46;

TAYLORVILLE    NOT AVBL
$$

ILZ033-039-045-046-055>057-062-063-240100-
EAST-CENTRAL ILLINOIS

CITY           SKY/WX    TMP DP  RH WIND       PRES   REMARKS
CHAMPAIGN      HVY RAIN  51  51 100 E12       29.32F FOG
MATTOON        RAIN      51  50  96 SE10      29.30F
$$

ILZ079-100>102-240100-
SOUTHWEST ILLINOIS

CITY           SKY/WX    TMP DP  RH WIND       PRES   REMARKS
ALTON          LGT RAIN  52  52 100 SE7       29.31F
BELLEVILLE     LGT RAIN  52  52 100 SE2       29.30F FOG
CAHOKIA*       LGT RAIN  54  53  97 SE5       29.30F FOG
$$

ILZ064>066-069>071-074>076-080>082-084>086-088>090-092>094-240100-
SOUTH-CENTRAL ILLINOIS

CITY           SKY/WX    TMP DP  RH WIND       PRES   REMARKS
CARBONDALE     RAIN      53  52  96 SW3       29.31S FOG
6HR MIN TEMP:  53; 6HR MAX TEMP:  55; 6HR PCP:  0.64;

MT. VERNON     CLOUDY    52  48  87 NE3       29.31F
$$

ILZ067-068-072-073-078-083-087-091-240100-
SOUTHEAST ILLINOIS

CITY           SKY/WX    TMP DP  RH WIND       PRES   REMARKS
LAWRENCEVILLE  HVY RAIN  55  54  96 SE9       29.32F FOG
$$

ABBREVIATIONS USED IN REMARKS
   TC - TEMPERATURE IN CELSIUS
  WCI - WIND CHILL INDEX
   HX - HEAT INDEX
  VSB - VISIBILITY
$$




USA.gov is the U.S. government's official web portal to all federal, state and local government web resources and services.